[[{"header":{"parameterUnit":"m.s-1","parameterCategory":1,"la1":30.2991,"la2":30.254,"lo1":-89.0895,"lo2":-89.0444,"dy":0.0017,"dx":0.0017,"nx":28,"ny":28,"refTime":"2025-06-22T09:00:00:Z","depth":0,"parameterNumber":2,"parameterNumberName":"U-component_of_WINDS"},"data":[0,0,0,0,0,0,0,0,0,0,0,0,0,0,0,0,0,0,0,0,0,0,0,0,0,0,0,0,0,0,0,0,0,0,0,0,0,0,0,0,0,0,0,0,0,0,0,0,0,0,0,0,0,0,0,0,0,0,-2.0419,-2.0419,0,-2.0398,-2.0398,-2.0397,-2.0345,-2.0344,-2.0343,-2.0342,-2.032,-2.032,-2.0321,0,0,0,0,0,0,0,0,0,0,0,0,0,-2.0416,-2.0417,-2.0419,-2.0419,-2.0419,-2.0398,-2.0398,-2.0397,-2.0346,-2.0344,-2.0343,-2.0342,-2.032,-2.032,-2.0321,0,0,0,0,0,0,0,0,0,0,0,0,0,-2.0409,-2.0417,-2.0419,-2.039,-2.0388,-2.0398,-2.0398,-2.0397,-2.0346,-2.0344,-2.0343,-2.0341,-2.032,-2.032,-2.0321,-2.0358,0,0,-2.0323,-2.0323,0,0,0,0,0,0,0,0,-2.0409,-2.0409,-2.0395,-2.0392,-2.0389,-2.0373,-2.0388,-2.0384,-2.0346,-2.0362,-2.0342,-2.034,-2.0339,-2.0338,-2.0337,-2.0357,-2.0356,-2.0323,-2.0323,-2.0324,-2.0324,0,0,0,0,0,0,0,-2.041,-2.0409,-2.0411,-2.0395,-2.0391,-2.0379,-2.0376,-2.0387,-2.036,-2.036,-2.0356,-2.0355,-2.0337,-2.0337,-2.0336,-2.0355,-2.0323,-2.0324,-2.0324,-2.0324,-2.0405,-2.0406,0,0,0,0,0,0,-2.0414,-2.041,-2.0411,-2.041,-2.0395,-2.038,-2.0377,-2.038,-2.0359,-2.0355,-2.0356,-2.0352,-2.0337,-2.0336,-2.0336,-2.0377,-2.0324,-2.0324,-2.0325,-2.0403,-2.0405,-2.0407,0,0,0,0,0,0,-2.0415,-2.0415,-2.0412,-2.0409,-2.0408,-2.0382,-2.0385,-2.038,-2.038,-2.0356,-2.0351,-2.0361,-2.0335,-2.0335,-2.0353,-2.0376,-2.0325,-2.0325,-2.0401,-2.0403,-2.0406,-2.0461,0,0,0,0,0,0,-2.0415,-2.0415,-2.0429,-2.041,-2.0408,-2.043,-2.0387,-2.0381,-2.0381,-2.0376,-2.0359,-2.0355,-2.0334,-2.0352,-2.0353,-2.0376,-2.0326,-2.0398,-2.0402,-2.0405,-2.0457,-2.0465,-2.0472,0,0,0,0,0,-2.0415,-2.0445,-2.0429,-2.043,-2.0424,-2.0431,-2.043,-2.0405,-2.0383,-2.0396,-2.0382,-2.0356,-2.0373,-2.0354,-2.0355,-2.0378,-2.0397,-2.0401,-2.0405,-2.0454,-2.0464,-2.0472,0,0,0,0,0,0,-2.0466,-2.0442,-2.0424,-2.0449,-2.0443,-2.0422,-2.0438,-2.0417,-2.0416,-2.0411,-2.038,-2.0377,-2.04,-2.0391,-2.037,-2.0413,-2.0381,-2.0385,-2.0418,-2.0427,-2.0435,-2.0436,-2.0326,0,0,0,0,0,-2.0481,-2.0488,-2.0466,-2.049,-2.0488,-2.0464,-2.0466,-2.0448,-2.044,-2.0436,-2.0423,-2.0416,-2.042,-2.0423,-2.0426,-2.0456,-2.0452,-2.0473,-2.048,-2.0487,-2.049,-2.0506,-2.0515,-2.042,-2.042,-2.042,0,0,-2.051,-2.0498,-2.0504,-2.0501,-2.0493,-2.0502,-2.0462,-2.0473,-2.0479,-2.0438,-2.0454,-2.0444,-2.0435,-2.046,-2.047,-2.0453,-2.0516,-2.0492,-2.0497,-2.0497,-2.0511,-2.0521,-2.0529,-2.0422,-2.0422,-2.0421,0,0,-2.0568,-2.056,-2.0579,-2.0573,-2.0563,-2.0547,-2.0552,-2.0535,-2.0527,-2.0543,-2.0513,-2.052,-2.0528,-2.0522,-2.0521,-2.0579,-2.0555,-2.0581,-2.062,-2.0636,-2.0644,-2.065,-2.0671,-2.0679,-2.0585,-2.0585,-2.0585,0,-2.0606,-2.0618,-2.0592,-2.0605,-2.0604,-2.0568,-2.0588,-2.0583,-2.0575,-2.0575,-2.0557,-2.0567,-2.0558,-2.0581,-2.0595,-2.0595,-2.06,-2.0582,-2.0645,-2.0651,-2.0657,-2.0676,-2.0684,-2.0588,-2.0588,-2.0588,-2.0587,0,-2.0665,-2.0674,-2.0691,-2.0684,-2.0685,-2.0702,-2.0678,-2.0683,-2.0665,-2.0652,-2.0669,-2.0658,-2.0657,-2.0662,-2.0644,-2.0683,-2.0673,-2.065,-2.0617,-2.067,-2.0687,-2.0695,-2.0593,-2.0592,-2.0591,-2.059,0,0,-2.0753,-2.0733,-2.0739,-2.0736,-2.0723,-2.073,-2.0745,-2.0745,-2.075,-2.0746,-2.0758,-2.0766,-2.0746,-2.0744,-2.0726,-2.074,-2.0787,-2.0715,-2.0715,-2.0729,-2.083,-2.0847,-2.0856,-2.0772,-2.0773,-2.0775,-2.0831,0,-2.0808,-2.0832,-2.081,-2.0839,-2.0847,-2.0814,-2.0828,-2.0822,-2.081,-2.0815,-2.0802,-2.0809,-2.0781,-2.078,-2.0792,-2.0779,-2.0807,-2.0775,-2.0783,-2.0784,-2.0786,-2.0865,-2.0882,-2.0935,-2.0837,-2.0839,-2.0839,0,-2.0874,-2.0873,-2.0903,-2.089,-2.0892,-2.0905,-2.0904,-2.0909,-2.0902,-2.0893,-2.0892,-2.087,-2.0885,-2.0853,-2.0873,-2.0852,-2.0854,-2.0848,-2.085,-2.0849,-2.0814,-2.0866,-2.0952,-2.096,-2.085,-2.0849,-2.0849,0,-2.0935,-2.0942,-2.0961,-2.0959,-2.0944,-2.0953,-2.0947,-2.0939,-2.0941,-2.094,-2.0941,-2.0942,-2.0943,-2.0945,-2.0924,-2.0903,-2.0947,-2.0914,-2.0939,-2.094,-2.0949,-2.0948,-2.1036,-2.0952,-2.0952,-2.0952,-2.0952,0,-2.0998,-2.1018,-2.0988,-2.1,-2.1021,-2.0996,-2.1018,-2.1009,-2.1002,-2.1011,-2.0983,-2.0993,-2.0965,-2.0973,-2.0957,-2.0976,-2.0976,-2.0969,-2.0965,-2.0971,-2.0972,-2.0972,-2.0967,-2.0954,-2.0953,-2.0953,-2.0953,0,-2.107,-2.1051,-2.1069,-2.1054,-2.105,-2.1067,-2.1053,-2.1064,-2.1051,-2.1063,-2.1065,-2.1044,-2.1051,-2.1031,-2.1035,-2.1025,-2.1052,-2.1042,-2.1055,-2.1051,-2.1078,-2.1076,-2.1168,-2.1179,-2.1088,-2.1089,-2.109,0,-2.111,-2.1125,-2.1111,-2.1115,-2.1111,-2.1119,-2.1121,-2.1097,-2.1101,-2.1094,-2.1106,-2.1111,-2.1113,-2.1126,-2.1111,-2.1114,-2.1104,-2.1136,-2.1104,-2.111,-2.1104,-2.1103,-2.1104,-2.1142,-2.1143,-2.1144,-2.1145,0,-2.1185,-2.1175,-2.1179,-2.1181,-2.1184,-2.1184,-2.1182,-2.1187,-2.1162,-2.1168,-2.1175,-2.1177,-2.1181,-2.1186,-2.1186,-2.118,-2.1159,-2.1156,-2.1162,-2.1168,-2.1175,-2.1171,-2.1072,-2.1153,-2.1152,-2.1152,-2.1151,-2.1151,-2.1242,-2.1254,-2.1246,-2.1252,-2.1248,-2.1247,-2.1256,-2.1245,-2.125,-2.1252,-2.1238,-2.1248,-2.1242,-2.124,-2.1237,-2.1244,-2.123,-2.1238,-2.1241,-2.1243,-2.1247,-2.1174,-2.1244,-2.1244,-2.1244,-2.1244,-2.1244,0,-2.1315,-2.1309,-2.1314,-2.1313,-2.1318,-2.1298,-2.1295,-2.13,-2.1309,-2.1305,-2.1309,-2.1317,-2.1323,-2.131,-2.1313,-2.1322,-2.1312,-2.1324,-2.1322,-2.1321,-2.126,-2.1255,-2.1332,-2.1332,-2.1332,-2.1331,-2.1331,-2.1331,-2.1353,-2.1372,-2.1362,-2.1379,-2.1372,-2.1382,-2.1382,-2.1382,-2.1378,-2.1389,-2.1394,-2.1385,-2.1378,-2.1381,-2.1385,-2.1381,-2.1384,-2.1399,-2.1391,-2.1334,-2.1326,-2.1317,-2.1312,-2.1399,-2.14,-2.1451,-2.1452,-2.1452]},{"header":{"parameterUnit":"m.s-1","parameterCategory":1,"la1":30.2991,"la2":30.254,"lo1":-89.0895,"lo2":-89.0444,"dy":0.0017,"dx":0.0017,"nx":28,"ny":28,"refTime":"2025-06-22T09:00:00:Z","depth":0,"parameterNumber":3,"parameterNumberName":"V-component_of_WINDS"},"data":[0,0,0,0,0,0,0,0,0,0,0,0,0,0,0,0,0,0,0,0,0,0,0,0,0,0,0,0,0,0,0,0,0,0,0,0,0,0,0,0,0,0,0,0,0,0,0,0,0,0,0,0,0,0,0,0,0,0,2.6345,2.6345,0,2.6311,2.631,2.631,2.6296,2.6296,2.6296,2.6297,2.6257,2.6255,2.6254,0,0,0,0,0,0,0,0,0,0,0,0,0,2.6397,2.6396,2.6345,2.6345,2.6344,2.6311,2.631,2.631,2.6296,2.6296,2.6297,2.6297,2.6257,2.6256,2.6254,0,0,0,0,0,0,0,0,0,0,0,0,0,2.6369,2.6395,2.6345,2.6334,2.6332,2.6311,2.631,2.631,2.6296,2.6296,2.6297,2.6297,2.6257,2.6256,2.6254,2.624,0,0,2.6249,2.6248,0,0,0,0,0,0,0,0,2.6371,2.6367,2.6336,2.6334,2.6333,2.6308,2.6314,2.6286,2.6296,2.631,2.6297,2.6297,2.6273,2.627,2.6263,2.6238,2.6236,2.6248,2.6247,2.6247,2.6246,0,0,0,0,0,0,0,2.6373,2.6369,2.6331,2.6335,2.6334,2.6329,2.6326,2.6308,2.6291,2.6309,2.6308,2.6304,2.6272,2.6265,2.6262,2.6236,2.6248,2.6247,2.6246,2.6245,2.6199,2.6198,0,0,0,0,0,0,2.6377,2.637,2.6332,2.633,2.6353,2.6328,2.6324,2.6316,2.6291,2.6288,2.6304,2.6303,2.6268,2.6264,2.6261,2.6243,2.6247,2.6245,2.6244,2.6199,2.6198,2.6198,0,0,0,0,0,0,2.6378,2.6374,2.6334,2.635,2.6345,2.6327,2.6318,2.6315,2.6308,2.6288,2.6284,2.63,2.6268,2.6263,2.6246,2.6242,2.6244,2.6243,2.6199,2.6199,2.6198,2.6208,0,0,0,0,0,0,2.638,2.6374,2.6369,2.635,2.6344,2.632,2.6318,2.6314,2.6305,2.6304,2.6283,2.6279,2.6268,2.6248,2.6244,2.6239,2.6241,2.6199,2.6199,2.6198,2.6208,2.6208,2.6208,0,0,0,0,0,2.6382,2.6372,2.6369,2.6365,2.6338,2.632,2.6317,2.6305,2.6305,2.6299,2.6287,2.628,2.6243,2.6247,2.6242,2.6236,2.6199,2.6199,2.6198,2.6208,2.6208,2.6208,0,0,0,0,0,0,2.6389,2.6369,2.6366,2.635,2.6337,2.6318,2.6311,2.6305,2.6291,2.629,2.6275,2.627,2.6254,2.6244,2.6248,2.6222,2.6221,2.6219,2.623,2.623,2.623,2.6232,2.624,0,0,0,0,0,2.639,2.6378,2.6361,2.6349,2.6343,2.6328,2.632,2.6312,2.6298,2.6292,2.6278,2.6263,2.6248,2.6238,2.6223,2.6207,2.6202,2.6201,2.6201,2.6201,2.62,2.6191,2.619,2.6197,2.6197,2.6197,0,0,2.6389,2.6377,2.637,2.635,2.6339,2.6327,2.6323,2.631,2.6301,2.6289,2.6273,2.6262,2.6244,2.6228,2.6219,2.6218,2.6197,2.6201,2.6201,2.6199,2.619,2.619,2.6189,2.6197,2.6197,2.6197,0,0,2.6382,2.6372,2.6361,2.6351,2.6335,2.6326,2.6324,2.6306,2.6299,2.6282,2.6274,2.6262,2.6237,2.6225,2.6215,2.6207,2.6199,2.6202,2.6202,2.6194,2.6193,2.6193,2.619,2.6189,2.6201,2.6201,2.6201,0,2.6383,2.6366,2.6356,2.6344,2.6335,2.6327,2.6315,2.6305,2.6285,2.6279,2.6278,2.6248,2.6235,2.6216,2.6214,2.6207,2.6203,2.6204,2.6195,2.6194,2.6193,2.619,2.6189,2.6201,2.6201,2.6201,2.6201,0,2.6368,2.6356,2.6349,2.6332,2.6323,2.6311,2.6299,2.6291,2.6284,2.6275,2.6259,2.6244,2.6226,2.6221,2.6214,2.6201,2.6201,2.6198,2.6196,2.6193,2.619,2.6189,2.6202,2.6202,2.6202,2.6202,0,0,2.6363,2.6343,2.634,2.6333,2.6316,2.6306,2.6294,2.6279,2.6273,2.6259,2.6249,2.6229,2.6226,2.6216,2.6207,2.62,2.6195,2.6198,2.6197,2.6198,2.618,2.6183,2.6182,2.6191,2.619,2.619,2.6182,0,2.6354,2.6334,2.6326,2.6309,2.6298,2.6291,2.628,2.6269,2.626,2.6249,2.6238,2.6225,2.6222,2.6216,2.6209,2.6197,2.6191,2.6197,2.618,2.6179,2.6184,2.618,2.6182,2.6175,2.6181,2.618,2.618,0,2.634,2.6329,2.6312,2.6298,2.6293,2.6284,2.627,2.626,2.6247,2.6241,2.6231,2.6223,2.621,2.621,2.6192,2.6196,2.6189,2.6182,2.6182,2.6179,2.6179,2.6177,2.6172,2.6171,2.6178,2.6178,2.6178,0,2.6338,2.6319,2.6307,2.6301,2.6284,2.6278,2.6271,2.6258,2.625,2.6237,2.6232,2.6218,2.621,2.6198,2.6187,2.6188,2.617,2.6169,2.6164,2.6165,2.616,2.616,2.6154,2.6156,2.6156,2.6156,2.6156,0,2.6329,2.6319,2.6306,2.6299,2.6287,2.6278,2.6266,2.6258,2.6247,2.6237,2.6229,2.622,2.6206,2.6195,2.6186,2.6173,2.6169,2.6163,2.6161,2.6164,2.6165,2.6158,2.6158,2.6156,2.6156,2.6156,2.6156,0,2.6325,2.6316,2.6302,2.6289,2.6285,2.6277,2.6265,2.6257,2.6249,2.6236,2.6233,2.622,2.6206,2.6195,2.6176,2.617,2.6156,2.6153,2.6161,2.616,2.6156,2.6157,2.6145,2.6143,2.6147,2.6147,2.6147,0,2.6319,2.6311,2.6297,2.6291,2.6285,2.6274,2.6267,2.6257,2.625,2.6235,2.6229,2.6215,2.6204,2.6183,2.6171,2.6157,2.6154,2.6151,2.6151,2.6155,2.6154,2.6154,2.6154,2.615,2.6151,2.6151,2.6151,0,2.6309,2.6306,2.6296,2.6286,2.6277,2.6268,2.6258,2.6253,2.6242,2.6233,2.6221,2.6212,2.6195,2.6182,2.6167,2.6158,2.6152,2.6151,2.6149,2.6151,2.6156,2.6154,2.6161,2.6151,2.6151,2.6151,2.6151,2.6151,2.6304,2.6298,2.6288,2.6277,2.6269,2.6261,2.6253,2.6245,2.6235,2.6221,2.6216,2.6203,2.6191,2.6171,2.6163,2.6152,2.6151,2.6148,2.6147,2.6147,2.6148,2.6159,2.6149,2.6149,2.6149,2.6149,2.6149,0,2.6295,2.6288,2.6279,2.6267,2.6259,2.6256,2.6246,2.6239,2.6228,2.6218,2.6208,2.6194,2.6181,2.6169,2.6156,2.615,2.6147,2.6147,2.6147,2.6145,2.6149,2.6152,2.6149,2.6149,2.6149,2.6149,2.6149,2.6149,2.6289,2.6278,2.6273,2.6259,2.6252,2.6241,2.6235,2.6227,2.6219,2.6204,2.6195,2.6188,2.6177,2.6163,2.6152,2.6149,2.6144,2.6144,2.614,2.6144,2.6144,2.6145,2.6147,2.6144,2.6144,2.6137,2.6137,2.6137]}]]